Theta_e
328 327 327 328 327 328 329 329 327 327 324 323 322 321 320 316 315 314 314 314 313 312 311 310 309 309 308 307 305 303 301 298 298 298 299 298 302 301 300 303 304 303 304
324 327 329 330 330 329 326 324 323 323 320 318 317 315 314 314 313 313 313 312 311 311 311 310 309 306 304 300 296 295 295 297 299 300 299 299 298 299 298 296 297 297 297
320 321 322 322 321 319 317 316 316 315 315 314 314 314 314 314 313 311 311 311 311 310 310 307 301 297 296 295 293 294 296 297 296 298 298 298 298 296 297 296 296 296 296
319 319 318 317 316 315 315 315 315 314 314 313 313 312 312 312 312 312 311 311 310 309 306 301 296 296 295 294 293 294 295 296 295 296 296 296 295 296 295 295 294 295 295
317 317 316 316 316 316 316 316 315 315 315 315 314 314 313 312 311 311 310 308 306 303 298 296 296 295 293 292 292 293 294 294 295 294 294 294 294 294 294 294 294 293 294
317 317 317 317 316 316 316 316 315 315 315 314 314 313 312 311 310 308 306 301 300 298 297 296 295 295 293 292 292 293 293 293 292 292 292 292 294 293 293 294 294 293 293
317 317 317 317 316 316 316 315 315 314 313 313 312 311 310 308 306 304 301 302 301 300 298 297 298 297 293 292 292 292 292 291 291 291 290 290 291 292 292 291 291 291 292
317 317 317 317 316 315 314 314 313 312 311 310 309 308 307 305 302 301 301 301 300 300 299 298 298 297 293 292 292 292 291 290 290 290 290 290 290 291 291 291 291 290 291
317 317 317 316 315 314 313 312 311 310 309 308 306 304 303 302 301 301 301 300 300 299 299 299 298 294 293 292 292 291 290 289 289 289 289 289 289 290 289 288 287 287 289
315 314 314 314 313 312 311 310 308 307 306 304 302 302 301 302 301 301 300 300 299 299 299 298 295 294 293 292 291 290 289 289 289 288 288 289 289 289 289 288 287 286 285
313 313 312 312 311 311 308 305 305 303 302 302 301 300 301 301 300 300 299 300 299 299 298 296 294 293 292 292 290 289 288 288 287 288 288 288 287 287 286 286 286 286 285
312 312 312 311 310 307 305 303 303 302 302 301 300 300 300 299 297 296 297 298 298 297 296 296 296 294 290 290 290 289 288 288 288 288 288 287 287 286 285 284 284 284 285
312 310 309 308 306 304 303 303 302 302 301 300 299 299 297 296 294 293 292 292 293 295 294 293 295 291 290 290 289 289 288 288 288 287 287 286 285 284 283 282 282 283 284
310 309 307 304 304 304 302 301 301 300 299 298 297 297 295 294 294 293 293 293 292 293 294 294 294 290 290 289 289 288 288 288 287 286 285 284 283 283 282 281 281 282 283
309 306 303 302 302 302 302 301 300 299 298 297 295 295 294 294 293 293 293 291 291 293 293 293 291 290 289 289 288 288 288 287 285 284 283 283 282 282 281 280 280 281 281
306 303 303 303 302 300 300 299 298 296 296 295 294 294 293 293 293 293 291 291 291 292 292 291 289 289 289 288 288 287 285 284 283 283 282 282 281 280 280 279 280 280 281
304 302 301 300 299 298 297 296 295 295 295 294 294 293 294 293 293 291 290 291 292 291 290 289 289 289 288 287 286 284 283 282 281 281 280 280 279 279 279 279 280 280 281
302 300 299 298 297 296 296 295 295 294 294 294 294 293 293 292 291 290 290 290 290 289 289 289 288 288 287 286 284 282 281 280 280 279 279 279 279 279 279 279 280 280 281
301 299 298 297 296 296 296 295 294 294 294 294 293 293 292 291 290 290 291 290 290 290 289 289 288 287 286 284 282 280 280 281 280 279 279 279 279 279 280 280 281 281 281
299 298 297 296 296 296 295 294 294 294 293 293 293 292 290 290 289 289 290 290 290 289 289 288 287 285 284 282 281 280 280 280 279 279 279 279 279 280 280 280 280 281 281
298 297 296 296 295 295 294 294 293 293 293 293 292 290 290 290 289 289 289 289 289 289 287 287 286 284 283 282 280 280 280 278 278 278 278 279 279 279 279 279 280 280 281
297 296 296 295 293 293 292 292 292 292 292 292 291 290 290 289 288 288 289 288 288 287 287 285 284 283 282 281 281 280 279 278 278 278 278 277 278 278 278 279 279 279 280
296 295 294 293 292 291 291 291 291 291 291 291 291 290 290 289 287 287 288 287 287 286 285 284 283 282 282 281 280 279 279 278 278 277 277 277 278 278 278 278 278 279 279
295 293 292 291 290 290 290 290 290 290 290 291 290 290 289 288 286 285 286 286 285 285 284 283 283 282 281 281 281 279 278 278 277 277 277 277 277 277 277 278 278 278 278
293 291 290 290 290 290 290 290 289 290 289 289 289 289 288 287 285 285 285 284 284 284 283 283 282 282 281 281 280 278 278 277 277 275 275 277 277 276 276 276 277 277 278
291 290 290 290 290 290 290 289 289 289 289 288 288 288 288 286 285 285 284 284 283 283 283 282 282 282 281 281 280 279 277 277 277 275 275 275 275 275 275 275 276 276 277
Wind_Speed
22 21 20 17 19 23 23 19 13 9 7 7 7 8 7 3 3 5 7 10 13 16 21 24 27 31 33 32 34 35 34 32 30 33 35 35 13 20 24 20 21 26 25
29 27 26 22 18 16 8 7 6 5 3 3 1 1 2 5 7 11 14 18 21 25 27 28 32 33 31 30 28 27 27 26 24 26 30 19 34 17 27 32 22 30 30
26 22 18 12 11 14 14 12 11 7 4 1 3 5 9 12 14 17 20 20 22 24 26 30 29 25 24 27 26 23 23 24 24 24 19 17 13 38 28 36 28 33 31
21 18 15 16 14 13 11 8 7 7 7 9 10 10 12 15 16 17 18 20 23 27 31 31 26 26 29 32 25 21 20 20 19 18 19 21 24 21 25 19 29 28 28
21 20 18 16 13 8 5 4 3 1 3 6 11 12 12 13 14 14 16 22 29 30 31 27 27 28 31 28 25 24 21 19 20 21 24 24 24 22 21 26 16 25 28
17 16 15 14 12 9 3 2 2 4 8 12 14 14 14 14 14 16 21 26 26 28 28 27 27 27 28 26 23 23 20 19 20 20 19 19 18 23 24 27 34 30 33
19 19 17 13 11 7 4 3 4 9 12 13 13 14 14 14 16 21 25 26 31 30 29 27 25 26 28 23 21 21 21 21 18 16 18 18 18 19 20 19 23 23 27
14 12 10 9 6 7 3 4 9 12 14 13 14 13 13 17 23 26 28 29 31 32 30 29 24 24 24 21 19 20 19 16 15 15 16 19 19 19 21 19 21 26 20
13 12 10 9 7 3 3 7 11 14 15 13 13 16 20 24 26 28 28 30 30 29 28 27 25 21 21 19 18 18 16 16 15 16 17 20 20 19 18 18 21 19 21
17 16 13 9 5 2 8 12 14 11 9 10 14 18 20 24 26 25 27 27 27 29 31 25 21 20 20 18 18 18 20 20 21 21 20 20 20 22 25 30 31 28 25
18 15 12 6 1 7 10 8 3 4 9 14 17 18 19 20 21 24 28 28 29 28 23 19 18 18 15 21 19 20 21 22 22 22 20 23 27 30 32 32 31 29 26
15 9 5 3 5 6 5 2 5 9 13 17 20 19 16 16 22 26 27 26 25 26 30 35 36 22 12 19 20 21 22 22 23 24 26 29 31 35 32 29 29 28 27
11 7 2 2 2 1 3 6 11 14 19 21 19 17 21 27 28 25 30 31 26 27 30 31 29 14 14 17 20 22 23 23 24 26 31 34 33 30 28 27 27 25 25
7 2 2 3 3 5 7 10 13 16 17 17 20 26 29 29 28 28 30 32 34 30 31 29 24 14 12 17 21 20 21 24 28 32 32 29 26 26 27 27 26 24 22
3 3 3 3 4 6 10 13 14 13 18 23 28 29 27 25 26 31 37 35 26 21 22 22 10 11 11 19 16 22 27 30 31 29 27 26 26 24 25 25 25 24 24
3 1 3 4 7 10 10 9 13 19 24 28 27 23 22 26 31 36 34 26 20 18 21 12 6 10 14 16 23 27 29 28 28 29 28 27 26 27 25 28 23 22 22
4 3 5 6 6 6 9 14 18 24 26 22 20 20 26 29 34 32 25 18 12 10 8 6 7 10 18 21 24 26 25 26 27 28 27 27 27 27 24 21 18 17 20
6 6 4 5 5 9 13 18 23 23 18 16 20 24 29 33 31 24 12 9 6 8 5 5 10 17 19 23 24 26 26 26 27 26 24 23 22 21 20 20 23 23 20
8 6 4 7 10 13 19 22 21 19 13 20 26 29 33 31 24 15 12 11 10 10 7 13 14 19 22 22 22 24 28 29 24 20 20 19 18 16 18 21 22 21 21
6 4 6 9 14 17 20 19 18 16 22 27 28 30 27 23 21 15 13 12 10 7 12 12 18 21 20 21 22 25 27 25 22 19 18 15 15 19 20 22 21 21 19
6 6 8 12 17 20 19 18 22 23 25 26 27 24 22 24 17 12 11 10 11 9 11 16 18 18 18 20 22 25 23 21 21 20 19 17 19 21 17 16 15 16 19
6 8 12 17 19 19 20 21 23 23 26 26 22 21 21 21 15 13 10 8 9 13 15 16 15 15 16 18 22 22 21 18 19 19 19 19 20 17 16 16 14 14 14
7 11 16 18 18 18 19 22 24 26 27 23 20 21 21 20 16 15 14 13 12 13 14 13 12 13 15 17 21 21 22 22 19 20 20 18 18 16 14 11 11 12 12
10 15 17 18 19 19 20 22 25 28 26 16 18 20 21 18 16 13 11 11 12 13 12 11 12 13 15 18 20 22 22 24 21 20 18 17 16 14 13 10 11 13 11
14 16 17 19 19 20 21 24 27 22 22 18 20 21 18 17 13 10 10 12 14 14 11 11 12 13 14 17 19 17 21 22 22 19 16 15 14 15 13 12 12 13 14
15 16 18 20 20 22 24 24 24 18 20 23 21 19 17 14 14 12 11 14 16 11 11 12 12 12 14 17 18 18 19 20 19 18 16 15 16 16 16 16 14 13 13
Wind_Direction
126 138 148 159 174 190 197 218 242 214 182 192 212 237 249 254 262 274 285 287 296 307 312 314 316 316 315 316 316 313 311 311 310 315 312 318 312 299 300 289 300 300 295
117 116 119 126 143 156 157 125 130 139 142 186 182 51 349 313 316 321 319 316 314 315 315 316 317 315 311 311 313 315 318 319 324 323 323 326 315 305 302 313 310 310 308
121 119 121 125 133 127 126 124 130 139 159 244 314 310 311 314 314 320 319 310 310 311 313 318 323 323 322 327 327 320 317 318 317 315 327 327 308 314 316 311 315 314 312
130 132 134 131 129 123 114 95 68 35 14 6 352 344 326 310 306 313 314 312 313 316 320 324 326 326 330 333 331 323 316 318 318 318 315 312 309 312 314 308 309 308 311
146 141 141 135 124 110 99 84 77 12 320 308 311 314 313 313 311 304 308 319 323 322 323 327 330 337 340 338 333 329 329 330 324 319 317 312 309 308 298 305 310 309 313
151 142 144 139 140 143 84 35 270 289 308 318 315 313 313 312 311 318 331 331 328 328 327 329 332 335 337 331 330 326 326 324 320 318 318 319 316 312 305 299 304 303 312
167 161 155 143 145 146 167 205 286 318 322 314 311 313 314 316 324 327 329 330 331 325 322 320 324 320 330 326 323 321 321 322 319 318 314 313 313 309 308 325 331 332 327
174 176 160 157 147 132 154 311 323 325 319 312 316 319 325 328 328 332 331 330 330 324 322 315 306 314 325 319 313 313 311 311 309 304 303 308 307 301 304 315 326 328 323
171 179 177 171 161 167 278 307 317 315 314 315 328 333 328 328 332 330 327 329 325 317 305 299 297 309 321 314 303 307 303 302 301 306 308 308 305 299 300 311 316 313 308
161 157 157 162 162 253 309 312 314 314 311 321 327 333 334 327 326 326 326 325 319 310 303 293 302 302 311 302 306 313 313 310 310 310 306 300 292 297 300 303 303 300 293
150 156 154 142 270 299 309 325 329 319 331 333 331 327 320 321 321 322 323 323 320 305 289 283 285 292 308 295 309 316 316 317 318 313 299 301 302 302 302 299 295 293 289
157 150 169 233 279 304 319 58 318 314 315 319 318 312 305 311 324 326 325 318 314 310 302 303 302 298 285 292 310 316 318 318 310 298 301 304 305 306 305 302 296 289 284
160 172 190 277 304 333 2 324 315 317 317 314 315 322 326 329 334 335 331 330 325 309 306 307 297 286 278 300 313 315 317 308 297 301 305 307 308 307 308 309 304 296 290
171 197 296 317 325 340 324 316 306 306 309 317 327 329 332 333 331 329 331 326 318 306 302 296 284 253 291 304 301 303 300 298 299 304 307 308 306 307 311 311 307 293 290
204 299 309 335 344 308 307 308 303 312 318 325 329 330 330 327 328 328 327 325 314 310 303 292 271 286 310 295 295 302 303 303 306 307 308 306 305 305 303 303 300 297 294
269 255 310 300 293 302 304 306 314 321 324 327 327 325 323 327 328 328 329 328 322 309 303 289 327 317 299 298 304 307 308 310 310 310 311 309 308 308 304 302 295 286 286
228 231 260 282 290 302 313 319 325 326 329 321 314 318 327 329 328 330 327 327 335 348 335 334 329 301 310 311 310 310 313 315 312 310 311 310 310 306 307 305 303 295 293
212 237 253 291 305 318 321 325 329 329 308 304 318 329 328 325 328 331 325 342 351 341 322 313 299 311 312 317 319 322 323 322 320 317 318 322 322 322 318 314 305 298 296
229 235 274 310 321 320 324 329 331 327 305 322 328 327 324 325 326 320 310 303 302 310 284 300 301 313 321 325 328 328 328 328 330 334 336 334 333 339 334 323 318 312 298
223 258 300 310 313 321 327 331 333 325 322 323 324 326 326 324 321 314 309 315 319 295 290 294 311 320 326 332 336 336 335 335 340 342 341 341 338 334 324 320 318 327 315
226 268 298 313 322 325 328 327 322 321 319 321 325 329 325 325 320 308 306 309 299 286 287 306 317 325 330 335 341 342 345 346 342 340 340 339 336 332 329 322 325 325 324
250 287 308 318 322 322 321 321 322 318 319 322 322 324 326 326 314 311 306 304 292 291 304 313 319 327 335 340 343 345 356 347 338 340 340 331 333 332 327 332 331 320 318
283 306 315 319 319 321 321 319 317 318 320 311 313 319 324 319 301 297 297 295 291 300 310 315 323 333 339 342 342 348 355 347 340 339 337 331 333 337 339 347 342 340 341
304 314 316 315 318 317 315 314 316 319 323 301 299 312 317 319 307 298 290 291 300 308 311 313 323 334 339 342 344 353 349 345 348 344 341 337 341 350 355 352 354 355 358
313 315 314 314 314 313 314 317 319 318 326 312 305 307 306 317 314 290 282 297 305 310 309 314 325 331 339 344 353 345 346 347 349 345 341 343 352 356 357 357 351 353 358
312 312 311 310 312 312 313 317 318 313 314 312 307 299 298 304 312 289 284 299 300 297 302 309 319 326 338 345 349 347 345 347 349 351 350 350 352 357 359 359 359 356 359